This is the latest recevied weather packets stored in our database for station/object WD7OO. If no packets are shown the sender has not sent any weather packets the latest 1 day(s).
| Time | Temp. | Humidity | Pressure | Rain* | Wind** | Luminosity | Snow |
|---|---|---|---|---|---|---|---|
| 1778025691 | 10.56° C | 58% | 1008.9 hPa | 0 mm | 0 m/s | 22 W/m² | - |
| 1778025389 | 10.56° C | 61% | 1008.8 hPa | 0 mm | 0 m/s | 23 W/m² | - |
| 1778025086 | 10.56° C | 54% | 1008.9 hPa | 0 mm | 0 m/s | 30 W/m² | - |
| 1778024783 | 11.11° C | 61% | 1009.1 hPa | 0 mm | 0.45 m/s, 308° | 36 W/m² | - |
| 1778024479 | 11.11° C | 63% | 1009.1 hPa | 0 mm | 0 m/s | 52 W/m² | - |
| 1778024177 | 11.11° C | 59% | 1009.2 hPa | 0 mm | 0 m/s | 50 W/m² | - |
| 1778023874 | 11.11° C | 55% | 1009.2 hPa | 0 mm | 0 m/s | 53 W/m² | - |
| 1778023572 | 11.11° C | 60% | 1009 hPa | 0 mm | 0 m/s | 78 W/m² | - |
| 1778023269 | 11.11° C | 62% | 1009.2 hPa | 0 mm | 0 m/s | 84 W/m² | - |
| 1778022966 | 11.11° C | 58% | 1009.2 hPa | 0 mm | 0 m/s | 59 W/m² | - |
| 1778022665 | 11.11° C | 53% | 1009.4 hPa | 0 mm | 0 m/s | 54 W/m² | - |
| 1778022362 | 11.11° C | 52% | 1009.4 hPa | 0 mm | 0 m/s | 60 W/m² | - |
| 1778022058 | 11.11° C | 55% | 1009.2 hPa | 0 mm | 0 m/s | 74 W/m² | - |
| 1778021755 | 10.56° C | 53% | 1009.2 hPa | 0 mm | 0 m/s | 69 W/m² | - |
| 1778021451 | 10.56° C | 55% | 1009.8 hPa | 0 mm | 0 m/s | 44 W/m² | - |
| 1778021148 | 10.56° C | 56% | 1009.5 hPa | 0 mm | 0 m/s | 51 W/m² | - |
| 1778020846 | 10.56° C | 56% | 1009.6 hPa | 0 mm | 0 m/s | 48 W/m² | - |
| 1778020543 | 10.56° C | 58% | 1009.5 hPa | 0 mm | 0.45 m/s, 309° | 43 W/m² | - |
| 1778020238 | 10.56° C | 57% | 1009.4 hPa | 0 mm | 0 m/s | 36 W/m² | - |
| 1778019935 | 10.56° C | 56% | 1009.4 hPa | 0 mm | 0.45 m/s, 329° | 46 W/m² | - |
| 1778019631 | 10.56° C | 55% | 1009.5 hPa | 0 mm | 0 m/s | 44 W/m² | - |
| 1778019329 | 10.56° C | 52% | 1009.4 hPa | 0 mm | 0 m/s | 41 W/m² | - |
| 1778019025 | 10.56° C | 57% | 1009.3 hPa | 0 mm | 0 m/s | 51 W/m² | - |
| 1778018722 | 10.56° C | 54% | 1009.8 hPa | 0 mm | 0 m/s | 53 W/m² | - |
| 1778018420 | 10.56° C | 52% | 1009.5 hPa | 0 mm | 0.45 m/s, 325° | 53 W/m² | - |
* Rain latest hour (hover to see other rain measurements)
** Current wind speed in m/s (hover to see current wind gust speed)